Miscellaneous Local Product
Issued by NWS North Platte, NE

Home | Current Version | Previous Version | Text Only | Print | Product List | Glossary On
Versions: 1 2 3 4 5 6 7 8 9 10 11 12 13 14 15 16 17 18 19 20 21 22 23 24 25 26 27 28 29 30 31 32 33 34 35 36 37 38 39 40 41 42 43 44 45 46 47 48 49 50
000
AXUS43 KLBF 280410
MISLBF


WESTERN AND NORTH CENTRAL NEBRASKA HOURLY WEATHER ROUNDUP
NATIONAL WEATHER SERVICE NORTH PLATTE NE
1100 PM CDT SUN JUL 27 2014

***STATIONS NOT REPORTING VARIABLES SUCH AS SKY/WEATHER OR
PRESSURE ARE PROVIDED BY THE NEBRASKA DEPARTMENT OF
ROADS...RAWS...AND APRS NETWORKS...AND ARE NOT UNDER
NATIONAL WEATHER SERVICE QUALITY CONTROL***

...OBSERVATIONS IN AND NEAR THE EASTERN PANHANDLE OF NEBRASKA...

CITY           SKY/WX    TMP DP  RH WIND       PRES   REMARKS
PINE RIDGE     CLEAR     60  53  77 NE7       30.31R
CHADRON        PTCLDY    66  50  56 SE5       30.29R
ALLIANCE       CLEAR     65  50  58 E8        30.32R
SIDNEY         PTCLDY    71  47  42 SE8       30.33R
WHITECLAY        N/A     61  49  63 SE3         N/A
RUSHVILLE        N/A     65  48  53 E12         N/A
GORDON           N/A     69  53  55 E14         N/A
CRESCENT LAKE    N/A     69  45  41 E6          N/A
LISCO            N/A     75  44  33 E12         N/A
BIG SPRINGS      N/A     70  56  60 CALM        N/A
$$

...OBSERVATIONS IN NORTH CENTRAL NEBRASKA...

CITY           SKY/WX    TMP DP  RH WIND       PRES   REMARKS
VALENTINE      CLEAR     66  52  60 NE7       30.29R
THEDFORD       CLEAR     66  53  63 E5        30.30R
AINSWORTH      CLEAR     62  53  72 NE3       30.29R
O`NEILL        CLEAR     62  55  77 NE6       30.27R
ORD            CLEAR     64  55  72 N3        30.25R
BROKEN BOW     CLEAR     62  55  77 NE6       30.26R
BROWNLEE         N/A     68  50  53 NE7         N/A
SPRINGVIEW       N/A     65  52  62 CALM        N/A
DUNNING          N/A     71  58  62 SE3         N/A
ROSE             N/A     67  58  73 N5          N/A
NEWPORT          N/A     62  55  77 CALM        N/A
SARGENT          N/A     67  54  63 CALM        N/A
COMSTOCK         N/A     69  60  74 CALM        N/A
CHAMBERS         N/A     64  53  68 E3          N/A
EWING            N/A     62  56  81 CALM        N/A
$$

...OBSERVATIONS IN SOUTHWEST NEBRASKA AND FAR NORTHEAST COLORADO...

CITY           SKY/WX    TMP DP  RH WIND       PRES   REMARKS
WRAY             N/A     73  48  41 E6        30.30S
HOLYOKE        MOCLDY    68  57  68 SE5       30.31R
IMPERIAL       MOCLDY    69  54  58 SE5       30.29R
OGALLALA       CLEAR     65  51  62 CALM      30.30R
NORTH PLATTE   CLEAR     63  50  62 SE3       30.27R
MCCOOK         CLEAR     69  54  58 NE5       30.26R
LEXINGTON      CLEAR     64  57  80 E3        30.25S
PAXTON           N/A     70  54  56 CALM        N/A
SUTHERLAND       N/A     65  55  68 E3          N/A
BRADY            N/A     66  50  57 CALM        N/A
CALLAWAY         N/A     64  55  73 NE6         N/A
$$

...SOME WEATHER OBSERVATIONS FROM AROUND THE REGION...

CITY           SKY/WX    TMP DP  RH WIND       PRES   REMARKS
DENVER         TSTM      69  59  70 S17       30.36R
LARAMIE        PTCLDY    64  53  67 SE8       30.46R
CHEYENNE       CLEAR     66  47  50 E8        30.42R
SCOTTSBLUFF    CLEAR     69  55  60 E7        30.30R
RAPID CITY     CLEAR     63  52  67 E8        30.32R
PIERRE         CLEAR     61  54  77 NE9       30.26R
WINNER         FAIR      65  52  62 E5        30.27R
SIOUX FALLS    MOCLDY    63  57  81 N9        30.21R
OMAHA          PTCLDY    67  58  72 N9        30.17R
GRAND ISLAND   CLEAR     65  58  78 N7        30.23R
KANSAS CITY    CLEAR     68  59  73 N9        30.13R
WICHITA        PTCLDY    78  54  43 N9        30.16R
HAYS           CLEAR     70  52  52 NE8       30.22S
LIBERAL        MOCLDY    75  52  43 SE5       30.27S
GOODLAND       PTCLDY    67  53  61 S8        30.31R
$$



USA.gov is the U.S. government's official web portal to all federal, state and local government web resources and services.